DeKalb Peachtree Airport Atlanta US
ICAO: KPDK
IATA: PDK
Category: Medium
Scheduled Services: No

Elevation: 1003 ft
TransAlt. 18000 ft.

Airport Communications:
ATLANTA APP/DEP:126.975
ATIS:128.4
CLNC DEL:120.9
CTAF:120.9
GND:121.6
MACON RDO:116.6
PEACHTREE TWR:120.9
UNICOM:122.95

KPDK Zoom In..

If you have problems with the map follow the link
https://www.worldairports.se/pages/airport.php?
ICAO=KPDK

Runways:

(A) RW 03L length 3746 ft width 150 ft
---- / hdg 26

(B) RW 03R length 6001 ft width 100 ft
---- / hdg 26

(C) RW 09 length 3383 ft width 150 ft
---- / hdg 91

(D) RW 16 length 3967 ft width 150 ft
---- / hdg 162

(E) RW 21L length 6001 ft width 100 ft
ILS 111.10 / hdg 206

(F) RW 21R length 3746 ft width 150 ft
---- / hdg 206

(G) RW 27 length 3383 ft width 150 ft
---- / hdg 271

(H) RW 34 length 3967 ft width 150 ft
---- / hdg 342

Location; KPDK
Day. 19 / Time. 18.53 Zulu
* Altimeter: 30.12
* Temperature: 07° c. 44.6°f.
* Wind from: 300° Speed 12 kn with Gusts up to 24 kn.
Dewpoint: -07° c.
Visibility: 10 Statute Miles.
Clouds: Clear (automated report).

KPDK 191853Z 30012G24KT 10SM CLR 07/M07 A3012 RMK AO2 PK WND 30026/1823 SLP204 T00671072


Wind From 300°
Speed 12 kn.

 
 
jpsmedia worldairports.se 2020   terms of use